SCP
6 5 8 6 4 5 6 5 4 3 3 2 2 1 1 1 1 1 1 0 1 1
8 7 6 7 8 6 7 5 5 4 4 4 3 2 1 1 1 0 1 1 1 0
7 8 7 10 9 5 8 5 5 5 5 4 2 2 1 1 1 0 1 0 0 0
8 7 6 8 7 7 8 7 6 8 6 4 2 1 1 1 1 0 1 0 0 0
8 7 7 5 4 0 7 9 7 8 5 3 1 1 1 1 1 1 0 0 0 0
6 6 3 0 0 0 0 3 4 6 3 1 1 1 1 1 1 0 0 0 0 0
5 5 2 1 0 0 0 -0 0 1 3 2 1 1 1 0 0 0 0 0 0 0
5 4 3 1 0 0 0 0 -0 0 2 2 1 0 0 0 0 0 0 0 0 0
3 1 1 0 0 0 0 0 0 -0 1 0 0 0 0 0 0 0 0 0 0 0
6 3 2 1 0 0 0 0 0 0 0 0 0 0 0 0 0 0 0 0 0 0
6 5 4 2 2 2 1 1 0 0 0 0 0 0 0 0 0 0 0 0 0 0
2 7 4 3 1 1 0 0 0 0 0 0 0 0 0 0 0 0 0 0 0 0
4 1 4 1 0 0 0 0 0 0 0 0 0 0 0 0 0 0 0 0 0 0
1 0 0 0 0 0 0 0 0 0 0 0 0 0 0 0 0 0 0 0 0 0
Wind_Speed_500mb
103 107 90 91 91 92 88 76 75 77 72 73 73 67 60 50 47 47 48 41 31 23
111 100 105 87 88 85 70 74 80 87 79 72 69 65 56 50 51 51 50 37 34 22
112 110 103 72 88 84 76 81 91 92 80 78 69 59 57 56 57 53 44 40 31 27
107 111 93 79 82 79 81 88 92 94 86 80 68 61 60 58 57 46 45 40 31 25
84 100 92 93 75 78 69 93 99 87 90 80 68 64 62 56 49 50 47 36 26 20
80 82 93 91 79 59 64 57 89 93 92 74 71 66 64 58 49 49 42 31 26 20
83 83 94 105 113 74 76 59 64 75 68 79 73 68 69 63 54 50 40 34 25 21
71 71 90 89 96 80 129 70 80 43 65 74 76 74 73 65 58 52 43 34 25 15
66 56 73 98 101 83 78 84 74 87 82 78 71 70 66 66 57 49 40 29 22 14
61 53 62 71 86 94 87 101 80 86 91 84 69 62 67 59 51 44 33 24 17 14
71 71 67 64 69 76 88 87 87 86 86 75 65 70 65 53 48 37 29 27 26 16
70 76 76 78 83 88 96 94 83 74 69 72 75 68 60 50 45 42 39 30 20 8
49 74 79 92 94 99 93 88 82 70 66 75 79 67 51 43 41 40 35 26 15 11
37 40 78 93 97 99 92 82 73 70 74 76 71 59 48 40 38 31 26 20 16 11
Wind_Direction_500mb
206 208 206 209 204 210 204 206 197 200 201 203 206 210 215 222 223 216 228 228 218 195
210 208 206 209 205 202 198 204 198 200 200 202 206 209 211 217 213 214 221 215 196 232
214 211 209 209 204 205 198 201 198 200 199 202 201 202 199 204 211 218 206 200 207 213
218 216 212 207 208 201 201 199 202 201 196 200 196 193 198 206 214 205 195 206 207 202
225 221 211 206 201 195 208 210 201 196 197 196 191 191 196 207 206 198 199 202 198 198
214 216 215 206 201 189 193 212 210 190 190 187 190 190 192 202 193 200 201 196 197 204
219 218 219 209 203 220 218 276 289 188 181 187 187 187 190 198 195 197 189 186 192 194
216 216 218 219 218 222 216 232 230 225 196 177 183 182 191 194 191 191 185 185 196 198
204 209 217 225 219 207 208 223 220 212 178 178 183 188 188 188 186 188 183 185 180 185
186 206 215 216 214 208 210 199 215 195 182 178 181 183 184 186 180 178 172 168 169 175
190 192 192 189 184 184 177 184 166 170 174 177 178 181 176 174 169 160 155 148 160 200
200 181 173 174 176 176 168 170 172 177 175 171 168 171 171 172 164 167 168 167 182 174
191 178 172 161 167 167 171 170 179 178 169 170 162 157 164 174 174 174 166 163 175 140
186 188 166 154 151 158 167 174 173 169 166 165 163 156 165 174 177 166 147 154 157 152
Wind_Speed_850mb
103 107 90 91 91 92 88 76 75 77 72 73 73 67 60 50 47 47 48 41 31 23
111 100 105 87 88 85 70 74 80 87 79 72 69 65 56 50 51 51 50 37 34 22
112 110 103 72 88 84 76 81 91 92 80 78 69 59 57 56 57 53 44 40 31 27
107 111 93 79 82 79 81 88 92 94 86 80 68 61 60 58 57 46 45 40 31 25
84 100 92 93 75 78 69 93 99 87 90 80 68 64 62 56 49 50 47 36 26 20
80 82 93 91 79 59 64 57 89 93 92 74 71 66 64 58 49 49 42 31 26 20
83 83 94 105 113 74 76 59 64 75 68 79 73 68 69 63 54 50 40 34 25 21
71 71 90 89 96 80 129 70 80 43 65 74 76 74 73 65 58 52 43 34 25 15
66 56 73 98 101 83 78 84 74 87 82 78 71 70 66 66 57 49 40 29 22 14
61 53 62 71 86 94 87 101 80 86 91 84 69 62 67 59 51 44 33 24 17 14
71 71 67 64 69 76 88 87 87 86 86 75 65 70 65 53 48 37 29 27 26 16
70 76 76 78 83 88 96 94 83 74 69 72 75 68 60 50 45 42 39 30 20 8
49 74 79 92 94 99 93 88 82 70 66 75 79 67 51 43 41 40 35 26 15 11
37 40 78 93 97 99 92 82 73 70 74 76 71 59 48 40 38 31 26 20 16 11
Wind_Direction_850mb
206 208 206 209 204 210 204 206 197 200 201 203 206 210 215 222 223 216 228 228 218 195
210 208 206 209 205 202 198 204 198 200 200 202 206 209 211 217 213 214 221 215 196 232
214 211 209 209 204 205 198 201 198 200 199 202 201 202 199 204 211 218 206 200 207 213
218 216 212 207 208 201 201 199 202 201 196 200 196 193 198 206 214 205 195 206 207 202
225 221 211 206 201 195 208 210 201 196 197 196 191 191 196 207 206 198 199 202 198 198
214 216 215 206 201 189 193 212 210 190 190 187 190 190 192 202 193 200 201 196 197 204
219 218 219 209 203 220 218 276 289 188 181 187 187 187 190 198 195 197 189 186 192 194
216 216 218 219 218 222 216 232 230 225 196 177 183 182 191 194 191 191 185 185 196 198
204 209 217 225 219 207 208 223 220 212 178 178 183 188 188 188 186 188 183 185 180 185
186 206 215 216 214 208 210 199 215 195 182 178 181 183 184 186 180 178 172 168 169 175
190 192 192 189 184 184 177 184 166 170 174 177 178 181 176 174 169 160 155 148 160 200
200 181 173 174 176 176 168 170 172 177 175 171 168 171 171 172 164 167 168 167 182 174
191 178 172 161 167 167 171 170 179 178 169 170 162 157 164 174 174 174 166 163 175 140
186 188 166 154 151 158 167 174 173 169 166 165 163 156 165 174 177 166 147 154 157 152